RH
70 53 48 46 25 8 6 12 56 83 95 89 79 63 53 53 60 56 31 26 23 20 9 28 16 19 28 34 22 23 25 28 56 25 12 11 12 23 48 67 80 85 77 69
64 61 48 48 26 9 6 7 52 95 85 84 93 79 56 40 64 64 32 26 26 34 11 9 13 13 12 15 16 19 19 19 21 24 15 15 17 15 13 13 32 74 89 98
63 72 59 47 37 14 7 8 29 80 85 98 88 72 71 75 78 86 58 32 24 30 28 10 9 8 9 12 11 9 8 8 9 10 10 11 11 11 12 14 22 47 64 96
50 80 67 60 54 18 9 11 10 73 100 75 94 99 65 71 98 87 57 51 37 22 39 15 18 12 10 9 9 10 11 14 13 12 12 12 20 21 24 23 29 40 36 32
56 77 70 59 66 22 17 24 21 20 56 53 58 90 95 70 63 73 71 82 66 53 26 36 20 20 15 12 12 12 13 16 20 23 18 12 14 28 36 32 26 29 48 40
53 82 77 62 55 26 18 23 58 57 71 62 62 90 96 74 79 71 58 93 87 58 44 29 31 45 47 44 35 20 22 35 24 14 17 22 23 42 47 34 37 40 48 69
59 67 76 72 61 48 19 24 55 42 61 29 39 72 63 95 100 99 92 81 72 66 43 31 31 31 35 39 40 37 41 40 32 25 21 17 16 43 73 35 50 59 74 93
70 70 82 71 67 72 27 21 25 33 46 46 66 78 90 95 95 89 62 83 53 33 38 33 27 32 34 27 26 37 42 46 37 28 30 27 24 20 27 32 72 93 98 98
65 59 87 83 64 80 42 44 46 64 56 68 54 75 86 88 77 92 60 66 50 43 29 29 25 23 76 80 26 28 48 60 50 33 35 38 28 21 28 39 77 98 85 96
58 76 91 91 81 79 61 41 72 62 91 57 43 81 91 96 78 93 91 62 52 35 30 26 23 31 35 26 23 34 70 89 84 50 35 47 39 24 28 34 58 98 84 80
67 80 84 95 89 90 63 39 52 49 97 67 38 53 71 80 97 99 94 76 51 40 33 28 33 33 37 29 17 32 44 71 77 92 73 84 72 48 52 70 96 100 97 81
77 87 90 85 95 100 67 78 54 33 35 81 92 72 50 95 100 100 99 62 65 46 36 45 42 30 24 35 37 31 25 32 83 100 74 78 73 100 98 92 96 96 98 87
96 75 92 95 89 93 94 88 64 70 66 50 96 38 81 80 99 93 99 99 87 60 61 40 50 46 32 19 12 14 24 41 98 93 67 92 81 58 76 44 91 94 71 42
100 87 75 46 65 88 88 76 66 83 61 41 45 30 57 65 88 83 84 72 73 60 67 54 40 40 29 20 13 10 9 39 66 56 72 61 22 28 36 62 64 62 50 71
100 93 72 68 84 92 96 98 88 72 54 50 55 85 75 76 83 98 96 100 88 89 97 61 36 30 33 25 17 17 13 13 21 11 12 13 29 33 37 57 49 41 76 56
100 83 85 74 93 91 97 90 98 79 78 64 45 49 89 69 84 99 92 64 88 68 52 45 51 32 26 20 17 14 9 7 7 8 15 24 23 20 29 47 76 71 43 33
100 87 98 68 91 100 98 60 78 83 86 97 57 34 48 90 90 92 76 85 77 72 62 56 54 38 27 14 14 19 18 11 9 10 10 12 18 37 47 41 35 30 29 18
98 98 78 73 100 99 41 60 80 69 94 83 78 84 83 95 98 99 77 97 88 30 29 51 38 16 12 25 36 43 18 8 9 10 11 25 24 23 27 27 30 28 15 16
100 100 97 89 80 80 60 55 79 87 70 75 57 53 69 79 96 87 85 73 76 53 38 36 14 14 15 17 19 38 45 28 11 13 30 17 15 18 28 30 20 15 14 16
99 100 99 100 98 77 53 76 86 80 54 65 62 59 74 81 92 90 97 51 40 40 46 22 13 11 12 14 16 18 37 31 24 22 20 20 18 29 32 19 16 16 18 17
96 100 100 100 95 59 65 92 96 78 55 77 79 62 40 63 64 82 62 59 46 52 30 15 13 10 12 14 16 18 22 38 43 36 26 19 22 30 18 16 17 19 19 17
96 97 100 100 89 70 85 99 97 70 81 95 88 51 48 66 77 82 46 85 73 57 30 15 15 9 11 13 14 15 17 29 35 27 21 26 21 16 16 18 19 18 19 20
80 86 100 100 92 94 100 96 94 92 100 100 90 70 91 75 89 70 70 44 38 34 21 22 22 12 10 11 12 14 20 25 24 25 24 17 18 18 20 21 21 22 24 33
76 73 100 98 100 100 100 94 100 100 97 84 100 78 92 83 74 76 59 42 38 31 32 34 23 11 10 10 11 13 16 16 16 17 18 19 20 22 24 24 26 36 55 76
52 79 95 97 100 97 64 71 94 97 100 78 78 91 90 69 65 57 81 53 49 50 52 55 28 13 10 11 12 13 13 14 16 19 22 23 24 27 30 32 49 79 87 100
36 54 80 98 99 95 91 95 98 99 97 88 98 98 98 77 54 56 57 44 43 42 41 42 31 17 13 13 14 15 15 17 21 24 28 30 34 34 40 85 100 100 100 100
Wind_Speed
22 16 9 8 7 10 12 9 11 12 16 23 23 14 15 15 17 18 9 11 10 12 7 9 8 10 10 11 9 8 8 8 7 11 10 9 12 9 9 11 11 12 12 11
23 12 15 12 9 10 10 10 11 10 15 19 17 18 16 16 9 14 11 13 13 9 7 3 3 4 4 6 6 6 7 8 9 5 6 7 8 5 2 3 3 6 7 7
24 14 21 16 12 10 10 10 12 16 20 17 9 14 16 17 16 8 12 10 10 7 4 4 3 3 5 5 6 8 10 10 9 8 7 6 3 2 1 4 4 7 6 8
27 21 22 20 16 12 11 12 14 29 23 26 15 19 16 22 15 10 8 11 2 3 3 3 2 2 3 3 3 4 5 5 3 3 4 4 4 3 4 6 6 7 7 8
21 22 24 21 16 16 10 17 15 19 31 31 24 18 11 18 14 15 13 10 8 3 3 5 3 2 3 1 2 3 1 2 2 3 3 3 4 5 7 10 11 11 10 12
31 28 27 22 19 19 19 20 17 20 22 28 21 24 12 15 17 17 18 18 9 8 5 2 2 2 3 4 5 6 6 6 7 7 7 7 9 8 9 10 13 16 14 12
32 29 27 28 24 24 24 24 22 21 22 17 17 27 14 13 20 23 26 24 13 2 8 5 3 4 5 9 10 10 10 11 8 9 10 11 13 12 12 14 14 17 22 17
36 34 30 26 26 21 25 24 25 18 17 12 21 20 16 13 16 24 21 16 17 15 14 12 8 10 12 13 14 14 14 13 13 11 12 15 16 16 17 17 19 23 30 25
37 36 26 29 27 26 24 28 15 18 24 26 24 23 27 21 16 22 21 23 20 19 19 18 13 12 12 18 20 17 19 20 19 16 12 14 20 22 17 19 17 22 29 27
36 37 31 31 29 29 26 23 26 26 28 28 28 22 18 21 17 25 21 26 28 23 19 19 21 17 14 15 17 16 21 20 26 22 19 18 18 21 22 22 18 20 21 25
36 36 34 34 37 34 31 32 32 33 33 30 30 24 21 21 21 22 26 30 21 20 19 20 20 24 25 23 20 20 27 33 26 17 26 27 26 27 26 25 38 30 22 24
31 36 41 40 36 40 33 32 33 38 30 30 33 30 28 21 22 29 30 25 23 18 16 18 21 19 22 26 26 27 29 26 23 27 28 26 31 39 36 22 26 30 27 25
33 40 45 45 42 41 40 35 36 32 34 39 33 31 29 29 31 24 30 27 25 25 26 24 22 22 21 23 26 28 27 27 29 30 25 20 26 25 27 33 30 32 37 36
38 40 46 43 41 40 42 39 37 36 38 33 36 31 28 31 32 32 28 28 34 24 28 24 15 18 19 22 25 28 26 27 29 28 29 32 36 36 35 34 33 35 37 35
43 41 44 47 47 43 46 40 37 37 32 37 29 32 29 24 35 29 30 30 31 35 21 25 21 22 22 23 23 26 28 30 31 32 32 34 33 35 36 35 37 38 36 38
48 47 47 50 50 47 52 49 38 36 31 32 30 37 33 30 28 37 31 31 32 40 39 36 30 31 25 23 24 25 28 30 31 31 31 31 33 35 36 36 37 37 38 40
56 52 50 52 51 50 55 50 54 41 34 32 35 30 32 26 23 26 33 30 37 35 37 33 35 35 29 26 26 29 30 30 30 31 33 33 33 32 34 37 38 38 38 38
42 57 58 51 53 56 41 48 52 52 38 38 31 34 34 27 31 31 44 29 38 37 25 20 30 32 30 30 30 32 34 33 33 33 33 34 34 34 35 35 35 36 35 36
27 40 58 58 56 50 48 47 44 48 49 44 44 38 33 31 36 37 37 42 46 40 29 27 28 31 32 33 34 33 30 32 32 34 35 35 36 36 36 36 35 35 37 39
30 27 50 47 48 53 46 48 41 44 49 46 46 38 44 42 43 45 42 39 36 34 30 31 30 32 33 33 32 33 31 32 34 35 36 37 37 37 37 36 36 38 41 45
51 47 39 47 45 40 44 39 37 45 43 36 37 39 40 35 39 43 41 39 37 32 31 32 34 36 35 33 32 31 32 32 33 35 36 37 37 37 36 37 40 43 47 51
44 51 30 43 50 47 45 38 47 38 31 27 29 31 37 37 42 41 39 34 35 35 35 34 36 37 36 35 34 31 31 31 33 35 35 36 36 37 39 42 46 49 53 57
39 44 47 27 49 41 41 38 35 40 37 34 38 32 36 36 36 38 37 42 39 35 35 37 37 39 39 37 34 32 32 33 34 34 34 35 38 40 44 48 51 55 58 60
38 44 46 30 42 44 47 42 39 39 42 39 32 37 34 33 37 37 42 39 36 38 39 39 38 38 38 37 36 35 35 35 36 36 37 40 43 46 49 53 56 59 61 62
38 42 41 25 27 41 43 38 44 43 43 49 45 44 44 47 39 43 38 41 42 43 42 40 38 38 39 38 37 37 37 39 40 40 43 47 50 53 54 57 60 63 64 65
36 35 41 41 25 39 44 43 35 34 50 49 45 41 42 43 42 37 36 41 41 43 45 44 41 39 39 40 40 41 42 44 45 47 51 54 56 58 59 63 64 63 65 65
Wind_Direction
256 261 264 261 286 293 296 295 218 252 291 316 314 319 312 318 327 332 3 39 29 32 24 51 47 60 76 77 71 75 72 73 57 71 83 83 87 108 132 149 175 196 198 189
259 270 249 247 251 271 297 301 233 229 288 292 286 298 293 307 328 348 357 12 42 22 357 20 51 53 62 72 84 78 71 68 80 72 59 73 85 108 129 171 197 232 267 214
261 243 255 249 243 259 278 288 226 222 251 278 291 289 294 299 310 295 346 351 41 41 354 358 46 49 54 65 68 73 70 62 62 67 66 66 78 64 318 247 232 251 229 244
257 250 258 257 267 246 260 271 231 224 237 256 271 284 286 285 292 267 334 319 31 56 89 91 29 54 84 79 68 61 72 59 44 38 26 12 359 351 316 293 273 250 246 248
259 251 259 260 262 244 239 243 241 244 236 245 242 259 280 278 297 272 278 295 311 136 108 124 120 20 336 293 305 307 281 225 243 269 272 269 269 274 299 294 287 273 254 252
242 240 244 252 244 241 234 236 233 244 241 248 254 245 232 269 284 301 295 281 290 316 309 249 181 291 267 297 289 271 276 288 312 303 289 293 291 282 294 294 280 275 261 258
254 249 246 242 239 234 239 240 246 241 251 262 234 228 233 238 261 273 288 271 290 264 274 277 295 305 302 292 298 289 280 272 291 292 282 287 283 260 291 289 270 278 276 257
246 243 247 254 254 245 244 252 254 254 262 249 223 238 237 217 257 274 281 278 287 306 276 259 277 311 300 302 294 278 276 267 262 256 280 299 290 276 287 276 261 296 309 260
248 250 242 242 242 235 225 235 247 256 249 238 226 246 256 230 234 263 270 273 292 289 284 295 286 300 281 296 291 286 274 268 269 268 269 294 293 285 279 286 290 308 289 259
243 246 237 234 234 229 229 243 232 234 244 245 239 250 267 222 238 253 262 275 274 280 294 294 292 293 287 295 277 268 270 277 269 261 260 272 278 273 271 274 274 276 279 283
243 239 233 221 230 233 224 224 234 241 238 247 253 244 264 249 238 260 261 261 259 267 289 296 288 292 295 295 287 271 279 267 284 268 276 275 278 278 261 277 268 278 265 278
239 231 230 234 222 233 218 226 233 245 249 249 247 250 247 252 245 250 253 261 266 256 265 276 291 296 297 299 301 292 289 291 274 269 275 275 276 273 249 281 278 278 296 302
229 229 226 231 230 229 220 223 224 234 253 239 238 248 252 249 247 260 255 252 281 282 275 260 272 277 283 284 285 289 290 295 284 281 266 267 292 293 290 284 291 288 292 293
208 226 227 231 233 231 230 225 226 242 248 242 247 255 258 252 249 245 244 278 275 271 275 255 274 275 275 273 278 284 291 287 282 287 284 285 288 288 290 288 287 288 290 293
214 213 224 227 230 224 230 229 232 234 247 246 245 244 245 241 259 247 257 260 277 256 282 287 287 271 267 266 271 277 284 285 285 282 279 279 283 284 283 288 286 285 289 292
216 216 216 224 228 222 230 230 227 230 235 251 253 243 248 242 257 253 254 256 273 266 275 286 289 288 275 269 267 268 269 271 272 275 278 278 277 277 276 276 280 285 287 287
222 219 224 224 225 226 223 233 228 227 233 240 250 253 242 248 256 259 255 250 263 276 276 286 279 278 279 278 276 272 270 270 272 276 280 282 281 279 281 282 283 284 286 288
200 224 225 228 226 229 230 231 229 234 228 240 244 242 240 240 244 251 261 270 269 269 276 272 278 274 279 280 279 277 273 274 278 281 282 283 284 284 284 282 280 282 285 290
209 206 225 228 233 229 232 239 227 234 230 236 245 245 247 245 245 248 248 255 257 265 276 280 275 278 280 280 280 282 276 273 275 277 278 279 280 282 281 281 284 285 288 291
212 204 224 222 229 237 236 238 229 229 239 233 244 256 250 251 243 247 253 254 255 263 267 272 280 285 284 283 281 280 279 275 275 274 274 276 276 276 279 281 282 285 287 290
253 257 226 230 235 237 242 235 228 231 240 238 243 244 252 239 241 242 246 251 258 264 267 272 280 281 279 279 276 274 273 273 273 274 275 273 272 275 275 278 282 284 288 291
243 249 224 224 236 235 243 243 233 245 239 230 239 246 247 244 245 246 249 255 259 261 267 269 276 279 278 274 272 270 270 270 269 266 266 268 270 274 277 279 282 287 290 294
247 239 242 224 220 235 233 245 243 232 226 222 236 244 235 239 247 249 251 257 262 262 263 268 274 277 275 273 272 271 269 265 263 263 264 267 270 274 278 282 286 290 294 296
246 238 236 239 222 231 232 240 242 244 220 217 225 236 247 246 245 252 257 263 262 263 266 269 272 275 275 275 273 271 270 267 267 268 270 273 275 279 282 286 290 294 296 297
249 249 250 248 241 229 237 235 237 234 230 222 224 234 250 250 253 252 258 262 260 261 266 273 275 275 275 275 273 272 271 271 272 274 276 277 279 282 286 289 291 293 295 295
242 251 255 249 236 222 231 240 240 229 224 219 228 232 243 252 252 260 263 265 265 265 268 271 271 274 275 275 274 274 273 274 276 277 278 279 283 287 288 289 291 291 296 291